Flag Weather past 2 weeks in Schwäbisch Hall, Baden-Württemberg, Germany

Now
40 °F

Fog.


Feels Like: 40 °F
Forecast: 34 / 44 °F
Wind: 2 mph from East

Location: Oehringen

Current Time: Nov 27, 2014 at 12:45:16 AM

Latest Report: Nov 27, 2014 at 12:00 AM


Visibility: 3 mi

Pressure: 29.97 "Hg

Humidity: 87%

Dew point: 37 °F

Location of Schwäbisch HallLocation

Historic Weather in Schwäbisch Hall — Graph

°F

Schwäbisch Hall temperature yesterday

Maximum temperature yesterday: 42 °F (at 3:00 PM)
Minimum temperature yesterday: 39 °F (at 8:00 AM)
Average temperature yesterday: 41 °F

Past Weeks' High & Low Weather Summary

 TemperatureHumidityPressure
High54 °F (Nov 22, 2:00 PM)100% (Nov 13, 6:00 AM)30.35 "Hg (Nov 13, 6:00 AM)
Low36 °F (Nov 21, 8:00 AM)69% (Nov 22, 1:00 PM)29.50 "Hg (Nov 16, 1:00 AM)
Average45 °F90%29.98 "Hg
* Reported Nov 11 11:00 PM — Nov 26 11:00 PM, Schwäbisch Hall, Weather by CustomWeather, © 2014

Note: Actual official high and low records may vary slightly from our data, if they occured in-between our weather recording intervals... More about our weather records

Advertising

Schwäbisch Hall weather history for previous 24 hours

 ConditionsComfort  
Time TempWeatherWind HumidityBarometerVisibility
11:00 PM
Nov 26
40 °FFog.3 mph86%29.98 "Hg3 mi
10:00 PM40 °FFog.3 mph86%29.99 "Hg3 mi
9:00 PM40 °FFog.3 mph85%30.00 "Hg3 mi
8:00 PM40 °FFog.3 mph84%30.00 "Hg3 mi
7:00 PM41 °FFog.5 mph84%30.01 "Hg4 mi
6:00 PM41 °FFog.5 mph83%30.01 "Hg4 mi
5:00 PM41 °FFog.5 mph82%30.01 "Hg4 mi
4:00 PM42 °FFog.5 mph82%30.01 "Hg4 mi
3:00 PM42 °FOvercast.5 mph81%30.01 "Hg5 mi
2:00 PM42 °FFog.5 mph81%30.03 "Hg4 mi
1:00 PM42 °FFog.3 mph83%30.04 "Hg4 mi
12:00 PM41 °FFog.3 mph85%30.06 "Hg4 mi
11:00 AM40 °FFog.5 mph85%30.07 "Hg4 mi
10:00 AM40 °FFog.3 mph87%30.08 "Hg4 mi
9:00 AM39 °FFog.5 mph86%30.09 "Hg4 mi
8:00 AM39 °FOvercast.5 mph85%30.08 "Hg5 mi
7:00 AM39 °FOvercast.5 mph86%30.09 "Hg6 mi
6:00 AM39 °FOvercast.3 mph86%30.09 "Hg6 mi
5:00 AM39 °FLight rain. Overcast.2 mph86%30.11 "Hg5 mi
4:00 AM40 °FOvercast.5 mph82%30.11 "Hg6 mi
3:00 AM40 °FOvercast.5 mph80%30.12 "Hg7 mi
2:00 AM41 °FOvercast.6 mph77%30.13 "Hg7 mi
1:00 AM41 °FOvercast.6 mph81%30.15 "Hg6 mi
12:00 AM42 °FOvercast.5 mph81%30.16 "Hg5 mi
Weather by CustomWeather, © 2014

See weather overviewHow to use our weather pages